Location: Eindhoven
(51.4416°N, 5.4697°E)
Time: 08:10:04
(UTC+01:00)

Tiros 1 - Pass Details

Date: 22 November 2019
Orbit: 630 x 664 km, 48.4° (Epoch: 06 December)

Event Time Altitude Azimuth Distance (km) Brightness Sun altitude
Rises 19:17:25 0° 278° (W) 2,925 11.9 -23.8°
Reaches altitude 10° 19:20:08 10° 264° (W) 2,018 10.8 -24.3°
Maximum altitude 19:23:42 22° 213° (SSW) 1,382 9.2 -24.8°
Enters shadow 19:25:46 17° 178° (S) 1,623 9.2 -25.1°
